Location: Slemon Park
(46.4340°N, 63.8219°W)
Time: 09:39:09
(UTC-03:00)

ISS - All Passes

Search period start: 20 August 2014 00:00
Search period end: 30 August 2014 00:00
Orbit: 413 x 419 km, 51.6° (Epoch: 20 August)

Date Brightness Start Highest point End Pass type
(mag) Time Alt. Az. Time Alt. Az. Time Alt. Az.
20 Aug - 14:55:31 10° S 14:58:05 21° SE 15:00:40 10° E daylight
20 Aug - 16:31:13 10° WSW 16:34:32 73° NNW 16:37:53 10° ENE daylight
20 Aug - 18:08:34 10° WNW 18:11:37 32° N 18:14:41 10° ENE daylight
20 Aug - 19:45:38 10° WNW 19:48:51 43° NNE 19:52:04 10° E daylight
20 Aug - 21:22:24 10° WNW 21:25:38 47° SW 21:28:51 10° SE visible
21 Aug - 14:08:10 10° SSE 14:09:48 13° SE 14:11:25 10° ESE daylight
21 Aug - 15:42:43 10° WSW 15:46:02 77° SSE 15:49:23 10° ENE daylight
21 Aug - 17:19:53 10° W 17:23:00 36° N 17:26:07 10° ENE daylight
21 Aug - 18:57:07 10° WNW 19:00:15 36° N 19:03:22 10° E daylight
21 Aug - 20:33:51 10° WNW 20:37:11 75° SSW 20:40:31 10° SE daylight
21 Aug - 22:11:53 10° WSW 22:13:25 13° SW 22:14:58 10° SSW visible
22 Aug - 14:54:22 10° SW 14:57:35 49° SE 15:00:49 10° ENE daylight
22 Aug - 16:31:11 10° W 16:34:23 42° NNW 16:37:35 10° ENE daylight
22 Aug - 18:08:32 10° WNW 18:11:36 33° N 18:14:40 10° ENE daylight
22 Aug - 19:45:20 10° WNW 19:48:40 75° NNE 19:52:00 10° ESE daylight
22 Aug - 21:22:35 10° W 21:25:07 20° SW 21:27:39 10° S visible
23 Aug - 14:06:11 10° SSW 14:09:09 31° SE 14:12:08 10° ENE daylight
23 Aug - 15:42:30 10° W 15:45:46 55° NNW 15:49:04 10° ENE daylight
23 Aug - 17:19:54 10° WNW 17:22:56 32° N 17:25:58 10° ENE daylight
23 Aug - 18:56:49 10° WNW 19:00:06 54° NNE 19:03:23 10° E daylight
23 Aug - 20:33:43 10° WNW 20:36:44 32° SW 20:39:44 10° SSE daylight
24 Aug - 13:18:18 10° S 13:20:46 19° SE 13:23:15 10° E daylight
24 Aug - 14:53:52 10° WSW 14:57:11 77° NNW 15:00:32 10° ENE daylight
24 Aug - 16:31:11 10° WNW 16:34:15 33° N 16:37:19 10° ENE daylight
24 Aug - 18:08:17 10° WNW 18:11:29 42° NNE 18:14:40 10° E daylight
24 Aug - 19:45:02 10° WNW 19:48:17 51° SSW 19:51:32 10° SE daylight
25 Aug - 12:31:03 10° SSE 12:32:25 12° SE 12:33:48 10° ESE daylight
25 Aug - 14:05:20 10° SW 14:08:38 72° SSE 14:11:58 10° ENE daylight
25 Aug - 15:42:27 10° W 15:45:34 36° N 15:48:42 10° ENE daylight
25 Aug - 17:19:42 10° WNW 17:22:48 35° N 17:25:55 10° ENE daylight
25 Aug - 18:56:26 10° WNW 18:59:46 80° SSW 19:03:06 10° ESE daylight
25 Aug - 20:34:17 10° WSW 20:36:02 14° SW 20:37:47 10° SSW visible
26 Aug - 13:16:56 10° SW 13:20:07 45° SE 13:23:20 10° ENE daylight
26 Aug - 14:53:41 10° W 14:56:53 44° NNW 15:00:06 10° ENE daylight
26 Aug - 16:31:03 10° WNW 16:34:06 32° N 16:37:09 10° ENE daylight
26 Aug - 18:07:51 10° WNW 18:11:11 71° NNE 18:14:31 10° ESE daylight
26 Aug - 19:45:02 10° W 19:47:39 22° SW 19:50:17 10° S daylight
27 Aug - 12:28:44 10° SSW 12:31:39 28° SE 12:34:34 10° E daylight
27 Aug - 14:04:57 10° WSW 14:08:14 57° NNW 14:11:32 10° ENE daylight
27 Aug - 15:42:20 10° WNW 15:45:22 32° N 15:48:25 10° ENE daylight
27 Aug - 17:19:17 10° WNW 17:22:33 51° NNE 17:25:49 10° E daylight
27 Aug - 18:56:09 10° WNW 18:59:13 34° SW 19:02:15 10° SSE daylight
28 Aug - 11:40:52 10° S 11:43:13 18° SE 11:45:34 10° E daylight
28 Aug - 13:16:16 10° WSW 13:19:36 81° NNW 13:22:56 10° ENE daylight
28 Aug - 14:53:34 10° WNW 14:56:38 33° N 14:59:42 10° ENE daylight
28 Aug - 16:30:41 10° WNW 16:33:52 40° NNE 16:37:02 10° E daylight
28 Aug - 18:07:25 10° WNW 18:10:41 55° SSW 18:13:57 10° SE daylight
29 Aug - 10:53:47 10° SSE 10:54:49 11° SE 10:55:51 10° ESE daylight
29 Aug - 12:27:41 10° SW 12:31:00 67° SSE 12:34:18 10° ENE daylight
29 Aug - 14:04:45 10° W 14:07:53 37° NNW 14:11:02 10° ENE daylight
29 Aug - 15:42:02 10° WNW 15:45:08 35° N 15:48:13 10° ENE daylight
29 Aug - 17:18:46 10° WNW 17:22:06 85° SSW 17:25:26 10° ESE daylight
29 Aug - 18:56:27 10° W 18:58:24 15° SW 19:00:20 10° S daylight
